STARLINK-35243, 66016

Orbit data source: Space-Track

STARLINK-35243, 66016 is a payload satellite owned by SpaceX/Seattle (US) in LEO that was launched on Thu, 16 Oct 2025 UTC via an FALCON 9 launch vehicle from the Air Force Eastern Test Range (AFETR). Payload-class satellites include a variety of spacecraft equipped with specific instruments for various scientific and technological missions. These include communications satellites like Starlink; space stations such as the ISS; scientific satellites like the Hubble; Earth observation satellites from companies like Planet Labs, Umbra, and HawkEye 360; GPS; miniature CubeSats for education and research; and military/defense satellites.

Loading next visibility...
Identifier
66016, 2025-232M
Orbit
LEO
Country
Flag of USUS
Related business
Manufacturer
SpaceX/Seattle
Mission
Operational Commercial Communications
Bus & Motor
STARLINK V2MO, Unknown motor
Mass
575 kg wet, ~530 kg dry
Launch date (UTC)
2025-10-16 (8 months ago)
Launch vehicle
FALCON 9
Launch site
Air Force Eastern Test Range (AFETR)
Object type
Payload
Rocket body
Debris
Shape & HBR
Box + 2 Pan, 17.7 m
Radar Cross Section
36.964 m², Large (>1 m²)

Expand to show TLE details & history
Last TLE update: 17 hours ago

TLE from 17 hours ago
0 STARLINK-35243
1 66016U 25232M   26171.19312307  .00016348  00000-0  49399-3 0  9995
2 66016  53.1617 347.4772 0002272  71.5943 288.5306 15.34395336 39130
Epoch: 2026-06-20T04:38Z
TLE epoch observation values (Epoch: 2026-06-20T04:38:05.833Z)
Latitude
-0.00005°
Longitude
9.5416°
Altitude
463.125 km
Speed
7.636 km/s
True Right ascension
23h 09m 54s
True Declination
0° 00' 00"
Sunlit
Object was in daylight at epoch
Visualization orbit readout
Latitude
Unknown
Longitude
Unknown
Altitude
Unknown
Speed
Unknown
Apparent Right ascension
Unknown
Apparent Declination
Unknown
Sunlit
N/A
Visualization observer readout
Local Sidereal Time
08:41:44
Azimuth
Unknown
Elevation
Unknown
Doppler factor
Unknown
Orbital elements
Apogee altitude
464.528 km
Perigee altitude
461.419 km
Semi-major axis
6,841.111 km
Eccentricity
0.00023
Inclination
53.1617°
RAAN
347.4772°
Arg. of periapsis
71.5943°
True anomaly
288.50591°
Mean anomaly
288.5306°
Eccentric anomaly
288.51826°
Mean motion
3.83578 °/min
Orbital period
93.85 mins
BSTAR
0.00049399
Loading maneuver chart data...
Computing Atmospheric mass density...
Loading historical data...
Loading historical data...
Loading historical data...
Loading historical data...
Loading historical data...
Loading historical data...
Loading historical data...

Documentation

Showing up to 5 results
|